NOAA 17 DEB, 48713

Orbit data source: Space-Track

NOAA 17 DEB, 48713 is space debris in SSO originally from a launch on Mon, 24 Jun 2002 UTC launched from the Air Force Western Test Range (AFWTR). Debris objects in space refer to the collection of defunct objects orbiting the Earth. Examples of debris include non-operational satellites, rocket bodies, and fragments generated from explosions, collisions, or faulty payload assembly.

Loading next visibility...
Identifier
48713, 2002-032AW
Orbit
SSO
Country
Flag of USUS
Related business
Manufacturer
Unknown
Mission
Spacecraft
Bus & Motor
Unknown
Mass
Unknown
Launch date (UTC)
2002-06-24 (23 years ago)
Launch vehicle
Unknown
Launch site
Air Force Western Test Range (AFWTR)
Object type
Payload
Rocket body
Debris
Shape & HBR
Unknown shape, 0.1 m
Radar Cross Section
Small (<0.1 m²)

Expand to show TLE details & history
Last TLE update: 1 day ago

TLE from 1 day ago
0 NOAA 17 DEB
1 48713U 02032AW  25348.26861005  .00051721  00000-0  49188-2 0  9998
2 48713  98.9654  94.1247 0040482 181.5930 178.5163 14.92609825252307
Epoch: 2025-12-14T06:26Z
TLE epoch observation values (Epoch: 2025-12-14T06:26:47.908Z)
Latitude
-0.00002°
Longitude
-85.75887°
Altitude
621.01 km
Speed
7.533 km/s
True Right ascension
06h 16m 29s
True Declination
0° 00' 00"
Sunlit
Object was in full shadow at epoch
Visualization orbit readout
Latitude
Unknown
Longitude
Unknown
Altitude
Unknown
Speed
Unknown
Apparent Right ascension
Unknown
Apparent Declination
Unknown
Sunlit
N/A
Visualization observer readout
Local Sidereal Time
15:06:13
Azimuth
Unknown
Elevation
Unknown
Doppler factor
Unknown
Orbital elements
Apogee altitude
615.072 km
Perigee altitude
558.681 km
Semi-major axis
6,965.014 km
Eccentricity
0.00405
Inclination
98.9654°
RAAN
94.1247°
Arg. of periapsis
181.593°
True anomaly
178.52825°
Mean anomaly
178.5163°
Eccentric anomaly
178.52228°
Mean motion
3.73388 °/min
Orbital period
96.41 mins
BSTAR
0.0049188
Loading maneuver chart data...
Computing Atmospheric mass density...
Loading historical data...
Loading historical data...
Loading historical data...
Loading historical data...
Loading historical data...
Loading historical data...
Loading historical data...

Documentation

Showing up to 5 results
|